User: anonymous   Login
Location: Caltech
(34.1382°N, 118.1253°W)
Time: 04:40:47
(UTC-08:00)
Language:

Hamsat - Orbit

View from above orbital plane
View from above orbital plane
View from above satellite
View from above satellite

Ground track
Ground track

The orbit data is extracted from the following two-line orbital elements,

1 28650U 05017B   15061.98071876  .00004162  00000-0  46933-3 0  9994
2 28650 097.5697 059.3220 0025087 026.9136 333.3376 14.86874151531660
Epoch (UTC): 02 March 2015 23:32:14
Eccentricity: 0.0025087
inclination: 97.5697°
perigee height: 590 km
apogee height: 625 km
right ascension of ascending node: 59.3220°
argument of perigee: 26.9136°
revolutions per day: 14.86874151
mean anomaly at epoch: 333.3376°
orbit number at epoch: 53166

The dashed part of the orbit path shows where the satellite is in the earth's shadow,  

DLR